Weather History for MROC - October, 2011

Change the Weather History Date:

Tuesday, October 11, 2011

  Actual Average Record
Temperature  
Mean Temperature 70 °F -  
Max Temperature 75 °F 78 °F 86 °F (2002)
Min Temperature 66 °F 64 °F 62 °F (2008)
Cooling Degree Days 6    
Growing Degree Days 20 (Base 50)    
Moisture  
Dew Point 68 °F    
Average Humidity 99    
Maximum Humidity 100    
Minimum Humidity 94    
Precipitation  
Precipitation 1.06 in 0.34 in - ()
Sea Level Pressure  
Sea Level Pressure 30.01 in    
Wind  
Wind Speed 4 mph ()    
Max Wind Speed 14 mph    
Max Gust Speed -    
Visibility 3.9 miles    
Events Fog , Rain    
Averages and records for this station are not official NWS values.
T = Trace of Precipitation, MM = Missing Value Source: Averaged Metar Reports

Daily Weather History Graph

Daily Weather History Graph

Search for Another Location

Airport or City:

Trip Planner

Search our weather history database for the weather conditions in past years. The results will help you decide how hot, cold, wet, or windy it might be!

Date:

Astronomy

Oct. 11, 2011 Rise Set
Actual Time 5:25 AM CST 5:21 PM CST
Civil Twilight 5:04 AM CST 5:42 PM CST
Nautical Twilight 4:39 AM CST 6:07 PM CST
Astronomical Twilight 4:15 AM CST 6:31 PM CST
Moon 5:04 PM CST (10/11) 4:56 AM CST (10/11)
Length of Visible Light 12h 38m
Length of Day
11h 56m
Full, 100% of the Moon is Illuminated
Oct 11
Full
Oct 11
Full
Oct 19
Last Quarter
Oct 26
New
Nov 2
First Quarter

Hourly Weather History & Observations

Time (CST) Temp. Dew Point Humidity Pressure Visibility Wind Dir Wind Speed Gust Speed Precip Events Conditions
12:00 AM 66 °F 66 °F 100% 29.91 in 2 mi West 4.6 mph - - Fog Light Fog
12:00 AM 66.2 °F 66.2 °F 100% 30.04 in 5.0 mi West 4.6 mph - N/A Fog , Rain Light Rain
1:00 AM 66.2 °F 66.2 °F 100% 30.02 in 2.8 mi West 5.8 mph - N/A Rain Light Rain
1:05 AM 66.2 °F 66.2 °F 100% 30.02 in 1.6 mi West 4.6 mph - N/A Rain Light Rain
2:00 AM 66.2 °F 66.2 °F 100% 30.00 in 5.0 mi Calm Calm - N/A Fog , Rain Light Rain
3:00 AM 66 °F 66 °F 100% 29.86 in 4 mi Calm Calm - - Fog Patches of Fog
3:00 AM 66.2 °F 66.2 °F 100% 30.00 in 6.2 mi Calm Calm - N/A Fog Light Drizzle
4:00 AM 66.2 °F 66.2 °F 100% 29.99 in 6.2 mi Calm Calm - N/A Fog Patches of Fog
5:00 AM 66.2 °F 66.2 °F 100% 30.01 in 6.2 mi Calm Calm - N/A   Light Drizzle
6:00 AM 66.2 °F 66.2 °F 100% 30.01 in 6.2 mi Calm Calm - N/A Fog Patches of Fog
7:00 AM 68.0 °F 68.0 °F 100% 30.03 in 6.2 mi Calm Calm - N/A Fog Patches of Fog
8:00 AM 71.6 °F 71.6 °F 100% 30.05 in 6.2 mi Calm Calm - N/A   Mostly Cloudy
9:00 AM 73.4 °F 71.6 °F 94% 30.07 in 6.2 mi Calm Calm - N/A   Mostly Cloudy
10:00 AM 71.6 °F 71.6 °F 100% 30.07 in 5.0 mi WSW 4.6 mph - N/A Fog , Rain Light Rain
11:00 AM 73.4 °F 71.6 °F 94% 30.06 in 5.0 mi WSW 11.5 mph - N/A Rain Rain
12:00 PM 73.4 °F 73.4 °F 100% 30.04 in 6.2 mi WSW 11.5 mph - N/A   Mostly Cloudy
1:00 PM 73.4 °F 71.6 °F 94% 30.00 in 6.2 mi WSW 9.2 mph - N/A   Mostly Cloudy
1:25 PM 69.8 °F 69.8 °F 100% 30.00 in 1.2 mi West 13.8 mph - N/A Fog , Rain Light Rain
2:00 PM 68.0 °F 68.0 °F 100% 29.99 in 0.4 mi West 11.5 mph - N/A Fog , Rain Rain
2:37 PM 68.0 °F 68.0 °F 100% 29.99 in 1.2 mi WSW 12.7 mph - N/A Rain Rain
3:00 PM 66 °F 66 °F 100% 29.87 in 2 mi West 13.8 mph - - Rain Rain
3:00 PM 66.2 °F 66.2 °F 100% 30.00 in 1.7 mi West 13.8 mph - N/A Rain Rain
4:00 PM 68.0 °F 68.0 °F 100% 30.00 in 1.9 mi Calm Calm - N/A Rain Rain
5:00 PM 68.0 °F 68.0 °F 100% 30.01 in 0.7 mi West 8.1 mph - N/A Rain Rain
6:00 PM 66 °F 66 °F 100% 29.90 in 2 mi WSW 5.8 mph - - Rain Rain
6:00 PM 66.2 °F 66.2 °F 100% 30.04 in 1.9 mi WSW 5.8 mph - N/A Rain Rain
7:00 PM 66.2 °F 66.2 °F 100% 30.07 in 1.9 mi Calm Calm - N/A Rain Rain
8:00 PM 68.0 °F 68.0 °F 100% 30.09 in 3.1 mi Calm Calm - N/A Rain Rain
9:00 PM 68 °F 68 °F 100% 29.96 in 3 mi Calm Calm - - Rain Light Rain
9:00 PM 68.0 °F 68.0 °F 100% 30.10 in 6.2 mi Calm Calm - N/A Rain Rain
10:00 PM 66.2 °F 66.2 °F 100% 30.10 in 6.2 mi Calm Calm - N/A Rain Light Rain
11:00 PM 66.2 °F 66.2 °F 100% 30.08 in 6.2 mi Calm Calm - N/A Rain Light Rain